Kimball, NE

6:09 PM MST on February 24, 2017 (GMT -0700)
Kimball Municipal-Arraj

Weather History for KIBM - June, 2013

Change the Weather History Date:

Tuesday, June 18, 2013

  Actual Average (KSNY) Record (KSNY)
Temperature  
Mean Temperature 69 °F -  
Max Temperature 87 °F 77 °F 105 °F (2012)
Min Temperature 51 °F 48 °F 38 °F (1975)
Cooling Degree Days 4    
Growing Degree Days 19 (Base 50)    
Moisture  
Dew Point 48 °F    
Average Humidity 53    
Maximum Humidity 88    
Minimum Humidity 21    
Precipitation  
Precipitation 0.19 in - - ()
Sea Level Pressure  
Sea Level Pressure 30.08 in    
Wind  
Wind Speed 12 mph (SE)    
Max Wind Speed 25 mph    
Max Gust Speed 32 mph    
Visibility 10 miles    
Events Rain , Thunderstorm    
Averages and records for this station are not official NWS values.
T = Trace of Precipitation, MM = Missing Value Source: NWS Daily Summary

Daily Weather History Graph

Daily Weather History Graph

Search for Another Location

Airport or City:

Trip Planner

Search our weather history database for the weather conditions in past years. The results will help you decide how hot, cold, wet, or windy it might be!

Date:

Astronomy

Jun. 18, 2013 Rise Set
Actual Time 6:21 AM CDT 9:30 PM CDT
Civil Twilight 5:47 AM CDT 10:04 PM CDT
Nautical Twilight 5:04 AM CDT 10:47 PM CDT
Astronomical Twilight 4:13 AM CDT 11:38 PM CDT
Moon 4:15 PM CDT (6/18) 2:33 AM CDT (6/18)
Length of Visible Light 16h 16m
Length of Day
15h 08m
Waxing Gibbous, 71% of the Moon is Illuminated
Jun 18
Waxing Gibbous
Jun 23
Full
Jun 29
Last Quarter
Jul 8
New
Jul 15
First Quarter

Hourly Weather History & Observations

Time (CDT) Temp. Dew Point Humidity Pressure Visibility Wind Dir Wind Speed Gust Speed Precip Events Conditions
12:15 AM 57.4 °F 44.6 °F 62% 30.24 in 10.0 mi NE 15.0 mph - N/A   Scattered Clouds
12:35 AM 56.3 °F 45.9 °F 68% 30.24 in 10.0 mi ENE 12.7 mph - N/A   Clear
12:55 AM 57.2 °F 48.2 °F 72% 30.22 in 10.0 mi ENE 12.7 mph 19.6 mph N/A   Clear
1:15 AM 56.7 °F 49.3 °F 76% 30.21 in 10.0 mi East 10.4 mph - N/A   Scattered Clouds
1:35 AM 56.8 °F 49.8 °F 77% 30.20 in 10.0 mi East 12.7 mph - N/A   Scattered Clouds
1:55 AM 56.5 °F 50.9 °F 82% 30.19 in 10.0 mi East 11.5 mph - N/A   Clear
2:15 AM 56.3 °F 51.1 °F 83% 30.17 in 10.0 mi East 12.7 mph - N/A   Clear
2:35 AM 56.3 °F 50.7 °F 82% 30.17 in 10.0 mi ESE 11.5 mph - N/A   Clear
2:55 AM 55.9 °F 49.1 °F 78% 30.16 in 10.0 mi ESE 10.4 mph - N/A   Clear
3:15 AM 55.6 °F 48.2 °F 76% 30.16 in 10.0 mi ESE 8.1 mph - N/A   Clear
3:35 AM 55.2 °F 47.5 °F 75% 30.16 in 10.0 mi ESE 8.1 mph - N/A   Clear
3:55 AM 54.9 °F 47.3 °F 76% 30.16 in 10.0 mi SE 6.9 mph - N/A   Clear
4:15 AM 53.4 °F 46.8 °F 78% 30.15 in 10.0 mi ESE 6.9 mph - N/A   Clear
4:35 AM 52.3 °F 46.4 °F 80% 30.15 in 10.0 mi SE 5.8 mph - N/A   Clear
4:55 AM 52.7 °F 46.4 °F 79% 30.15 in 10.0 mi SE 8.1 mph - N/A   Clear
5:15 AM 52.9 °F 46.8 °F 80% 30.15 in 10.0 mi SSE 6.9 mph - N/A   Clear
5:35 AM 52.2 °F 46.4 °F 81% 30.15 in 10.0 mi South 8.1 mph - N/A   Clear
5:55 AM 51.4 °F 46.4 °F 83% 30.15 in 10.0 mi South 8.1 mph - N/A   Clear
6:15 AM 51.8 °F 47.3 °F 85% 30.14 in 10.0 mi South 8.1 mph - N/A   Clear
6:35 AM 52.7 °F 47.7 °F 83% 30.14 in 10.0 mi South 9.2 mph - N/A   Clear
6:55 AM 53.8 °F 48.4 °F 82% 30.15 in 10.0 mi South 8.1 mph - N/A   Clear
7:15 AM 54.7 °F 49.1 °F 81% 30.13 in 10.0 mi SSW 9.2 mph - N/A   Clear
7:35 AM 56.8 °F 49.1 °F 75% 30.13 in 10.0 mi SSW 4.6 mph - N/A   Clear
7:55 AM 58.8 °F 48.9 °F 70% 30.13 in 10.0 mi South 9.2 mph - N/A   Clear
8:15 AM 61.7 °F 49.5 °F 64% 30.14 in 10.0 mi South 9.2 mph - N/A   Clear
8:35 AM 64.6 °F 50.0 °F 59% 30.14 in 10.0 mi South 13.8 mph 17.3 mph N/A   Clear
8:55 AM 66.4 °F 50.2 °F 56% 30.14 in 10.0 mi South 13.8 mph - N/A   Clear
9:15 AM 68.0 °F 49.6 °F 52% 30.14 in 10.0 mi South 16.1 mph 21.9 mph N/A   Clear
9:35 AM 68.9 °F 50.0 °F 51% 30.14 in 10.0 mi South 17.3 mph - N/A   Clear
9:55 AM 69.4 °F 50.2 °F 50% 30.14 in 10.0 mi South 15.0 mph - N/A   Clear
10:15 AM 70.7 °F 50.5 °F 49% 30.13 in 10.0 mi South 17.3 mph 20.7 mph N/A   Clear
10:35 AM 70.5 °F 51.1 °F 50% 30.13 in 10.0 mi SSE 12.7 mph 19.6 mph N/A   Clear
10:55 AM 72.7 °F 51.3 °F 47% 30.12 in 10.0 mi South 12.7 mph 18.4 mph N/A   Clear
11:15 AM 73.8 °F 50.9 °F 45% 30.12 in 10.0 mi SSE 13.8 mph - N/A   Clear
11:35 AM 74.5 °F 50.4 °F 43% 30.11 in 10.0 mi South 11.5 mph 19.6 mph N/A   Clear
11:55 AM 75.0 °F 50.5 °F 42% 30.11 in 10.0 mi SSE 13.8 mph 18.4 mph N/A   Clear
12:15 PM 76.3 °F 49.8 °F 39% 30.10 in 10.0 mi SSE 13.8 mph 19.6 mph N/A   Clear
12:35 PM 78.1 °F 49.5 °F 37% 30.10 in 10.0 mi SSE 15.0 mph 19.6 mph N/A   Clear
12:55 PM 78.3 °F 49.5 °F 36% 30.08 in 10.0 mi SSE 10.4 mph 21.9 mph N/A   Clear
1:15 PM 79.3 °F 49.3 °F 35% 30.08 in 10.0 mi SE 15.0 mph 19.6 mph N/A   Clear
1:35 PM 80.6 °F 48.9 °F 33% 30.06 in 10.0 mi SE 12.7 mph 19.6 mph N/A   Clear
1:55 PM 81.5 °F 48.2 °F 31% 30.06 in 10.0 mi SSE 16.1 mph 21.9 mph N/A   Clear
2:15 PM 82.2 °F 46.8 °F 29% 30.04 in 10.0 mi SE 13.8 mph 19.6 mph N/A   Clear
2:35 PM 83.5 °F 48.2 °F 29% 30.04 in 10.0 mi SE 16.1 mph 20.7 mph N/A   Clear
2:55 PM 83.7 °F 47.3 °F 28% 30.03 in 10.0 mi SSE 17.3 mph 23.0 mph N/A   Clear
3:15 PM 84.2 °F 46.2 °F 26% 30.03 in 10.0 mi South 17.3 mph 28.8 mph N/A   Clear
3:35 PM 84.2 °F 46.6 °F 27% 30.02 in 10.0 mi SSE 15.0 mph 23.0 mph N/A   Clear
3:55 PM 84.9 °F 45.1 °F 25% 30.02 in 10.0 mi SSE 17.3 mph 20.7 mph N/A   Clear
4:15 PM 85.6 °F 43.9 °F 23% 30.00 in 10.0 mi SE 11.5 mph 21.9 mph N/A   Clear
4:35 PM 86.7 °F 44.6 °F 23% 29.99 in 10.0 mi SSE 11.5 mph 21.9 mph N/A   Clear
4:55 PM 87.4 °F 43.7 °F 22% 29.99 in 10.0 mi SE 13.8 mph 23.0 mph N/A   Clear
5:15 PM 87.8 °F 44.2 °F 22% 29.98 in 10.0 mi SSE 19.6 mph 31.1 mph N/A   Scattered Clouds
5:35 PM 86.5 °F 45.3 °F 24% 29.97 in 10.0 mi SSE 19.6 mph 26.5 mph N/A   Scattered Clouds
5:55 PM 86.2 °F 45.5 °F 24% 29.97 in 10.0 mi SSE 21.9 mph 31.1 mph N/A Thunderstorm Clear
6:15 PM 81.1 °F 44.8 °F 28% 29.96 in 10.0 mi SSE 25.3 mph 32.2 mph N/A   Clear
6:35 PM 76.8 °F 48.7 °F 37% 29.93 in 10.0 mi SSE 19.6 mph 24.2 mph N/A Rain Light Rain
6:55 PM 77.2 °F 45.7 °F 33% 29.96 in 10.0 mi SSE 19.6 mph 25.3 mph N/A Thunderstorm Scattered Clouds
7:15 PM 77.0 °F 45.7 °F 33% 29.94 in 10.0 mi SE 12.7 mph 24.2 mph N/A   Mostly Cloudy
7:35 PM 78.4 °F 35.6 °F 21% 29.94 in 10.0 mi South 19.6 mph 31.1 mph N/A   Overcast
7:55 PM 74.8 °F 39.4 °F 28% 29.95 in 10.0 mi SE 10.4 mph 31.1 mph N/A Thunderstorm Scattered Clouds
8:15 PM 75.9 °F 38.7 °F 26% 29.96 in 10.0 mi SE 15.0 mph 21.9 mph N/A   Scattered Clouds
8:35 PM 72.7 °F 41.5 °F 32% 29.99 in 10.0 mi SSE 15.0 mph - N/A   Scattered Clouds
8:55 PM 71.4 °F 43.0 °F 36% 30.00 in 10.0 mi ESE 9.2 mph - N/A   Mostly Cloudy
9:15 PM 70.0 °F 44.6 °F 40% 29.99 in 10.0 mi East 6.9 mph - N/A   Scattered Clouds
9:35 PM 69.4 °F 45.3 °F 42% 30.00 in 10.0 mi NE 5.8 mph - N/A Rain Light Rain
9:55 PM 68.9 °F 46.4 °F 44% 29.99 in 10.0 mi NE 9.2 mph - N/A Thunderstorm Thunderstorm
10:15 PM 68.5 °F 46.9 °F 46% 29.99 in 10.0 mi NNE 12.7 mph - N/A Rain , Thunderstorm Light Thunderstorms and Rain
10:35 PM 62.2 °F 51.1 °F 67% 30.02 in 10.0 mi North 18.4 mph 26.5 mph N/A Thunderstorm Unknown
10:55 PM 60.1 °F 53.6 °F 79% 30.03 in 10.0 mi NNW 11.5 mph - N/A Rain , Thunderstorm Light Thunderstorms and Rain
11:15 PM 59.2 °F 54.1 °F 83% 30.06 in 10.0 mi NW 4.6 mph - 0.04 in Rain , Thunderstorm Thunderstorms and Rain
11:35 PM 58.1 °F 54.5 °F 88% 30.04 in 5.0 mi NNE 13.8 mph - 0.19 in Rain , Thunderstorm Thunderstorms and Rain
11:55 PM 58.6 °F 54.5 °F 86% 30.04 in 10.0 mi NE 13.8 mph - 0.19 in Rain , Thunderstorm Light Thunderstorms and Rain